This is the latest recevied weather packets stored in our database for station/object OE-11140. If no packets are shown the sender has not sent any weather packets the latest 10 day(s).
| Time | Temp. | Humidity | Pressure | Rain* | Wind** | Luminosity | Snow |
|---|---|---|---|---|---|---|---|
| 1787960116 | 15° C | 88% | 1020.7 hPa | 1.02 mm | - | 0 W/m² | - |
| 1787959515 | 15° C | 86% | 1020.5 hPa | 1.02 mm | - | 0 W/m² | - |
| 1787958916 | 15.56° C | 74% | 1020.4 hPa | 1.02 mm | - | 0 W/m² | - |
| 1787958316 | 15.56° C | 81% | 1020.7 hPa | 1.52 mm | - | 0 W/m² | - |
| 1787957716 | 16.11° C | 80% | 1020.3 hPa | 1.78 mm | - | 0 W/m² | - |
| 1787956889 | 16.11° C | 77% | 1020.1 hPa | 1.78 mm | - | 0 W/m² | - |
| 1787956516 | 16.67° C | 79% | 1019.9 hPa | 1.52 mm | - | 0 W/m² | - |
| 1787955916 | 16.67° C | 85% | 1019.2 hPa | 1.02 mm | - | 0 W/m² | - |
| 1787955089 | 17.78° C | 78% | 1018.3 hPa | 0.76 mm | - | 0 W/m² | - |
| 1787954715 | 18.33° C | 75% | 1017.8 hPa | 0.51 mm | - | 0 W/m² | - |
| 1787954116 | 20° C | 72% | 1016.7 hPa | 0 mm | - | 0 W/m² | - |
| 1787953289 | 20° C | 69% | 1015.9 hPa | 0 mm | - | 0 W/m² | - |
| 1787952916 | 20° C | 73% | 1015.6 hPa | 0 mm | - | 0 W/m² | - |
| 1787952316 | 20° C | 72% | 1015.6 hPa | 0 mm | - | 0 W/m² | - |
| 1787951489 | 20° C | 74% | 1015.4 hPa | 0 mm | - | 0 W/m² | - |
| 1787951116 | 20° C | 74% | 1015.3 hPa | 0 mm | - | 0 W/m² | - |
| 1787950516 | 20° C | 73% | 1014.9 hPa | 0 mm | - | 0 W/m² | - |
| 1787949689 | 20° C | 73% | 1014.6 hPa | 0 mm | - | 0 W/m² | - |
| 1787949316 | 20° C | 72% | 1014.5 hPa | 0 mm | - | 0 W/m² | - |
| 1787948716 | 20° C | 71% | 1014.4 hPa | 0 mm | - | 0 W/m² | - |
| 1787947889 | 20° C | 71% | 1014.3 hPa | 0 mm | - | 0 W/m² | - |
| 1787947515 | 20° C | 73% | 1014 hPa | 0 mm | - | 0 W/m² | - |
| 1787946916 | 20° C | 73% | 1014 hPa | 0 mm | - | 0 W/m² | - |
| 1787946090 | 19.44° C | 74% | 1013.4 hPa | 0 mm | - | 0 W/m² | - |
| 1787945716 | 20° C | 73% | 1013.2 hPa | 0 mm | - | 0 W/m² | - |
* Rain latest hour (hover to see other rain measurements)
** Current wind speed in m/s (hover to see current wind gust speed)